Regional Weather Roundup
Issued by NWS

Home | Current Version | Previous Version | Text Only | Print | Product List | Glossary On
Versions: 1 2 3 4 5 6 7 8 9 10 11 12 13 14 15 16 17 18 19 20 21 22 23 24 25 26 27 28 29 30 31 32 33 34 35 36 37 38 39 40 41 42 43 44 45 46 47 48 49 50
000
ASHW40 PHFO 201830
RWRHI

WEATHER ROUNDUP FOR HAWAII
NATIONAL WEATHER SERVICE HONOLULU HI
800 AM HST WED AUG 20 2014

THIS IS AN AUTOMATED REPORT THAT HAS NOT BEEN QUALITY CONTROLLED.

NOTE..."FAIR" INDICATES FEW OR NO CLOUDS BELOW 12,000 FEET WITH NO
SIGNIFICANT WEATHER AND/OR OBSTRUCTIONS TO VISIBILITY.

* - THESE SITES REPORT LIMITED FIELDS

HIZ001>004-201900-
KAUAI-NIIHAU-

CITY           SKY/WX    TMP DP  RH WIND       PRES   REMARKS
LIHUE APT      MOSUNNY   80  68  66 NE10      30.02R
PORT ALLEN*      N/A     77 N/A N/A NE6G13      N/A
POIPU*           N/A     79 N/A N/A NE7         N/A
PRINCEVILLE*   NOT AVBL
KOKOLE POINT*  NOT AVBL
MOLOAA DAIRY*  NOT AVBL
WAIMEA HTS*    NOT AVBL
PUU OPAE*      NOT AVBL
PUU LUA*       NOT AVBL
MAKAHA RIDGE*  NOT AVBL
$$

HIZ005>011-201900-
OAHU-

CITY           SKY/WX    TMP DP  RH WIND       PRES   REMARKS
HONOLULU       MOSUNNY   81  65  58 NE8       29.99R
KALAELOA       SUNNY     80  66  62 VRB3      30.00R
KANEOHE MCB    MOSUNNY   75  67  75 NE10      30.00R
WHEELER FIELD  FAIR      75  66  73 VRB3      30.01R
BELLOWS*         N/A    N/A N/A N/A NE14        N/A
KAHUKU*          N/A    N/A N/A N/A E9G15       N/A
WHEELER*       NOT AVBL
WAIANAE HARBOR NOT AVBL
DILLINGHAM*      N/A     81  68  65 E3          N/A
KAHUKU TRN*      N/A     79  68  69 E9G18       N/A
KAWAILOA*      NOT AVBL
KII*             N/A     81  68  65 E13G18      N/A
MAKUA RANGE*     N/A     81  64  57 E8G16       N/A
OAHU FOREST NW NOT AVBL
SCHOFIELD BRK*   N/A     75  66  73 W1          N/A
SCHOFIELD S*   NOT AVBL
WAIANAE VLY*   NOT AVBL
KUAOKALA*      NOT AVBL
HONOULIUULI*   NOT AVBL
MOKUOLOE IS*     N/A    N/A N/A N/A MISG        N/A
PALEHUA*       NOT AVBL
WAIAWA PHB*    NOT AVBL
$$

HIZ012>013-201900-
MOLOKAI-

CITY           SKY/WX    TMP DP  RH WIND       PRES   REMARKS
MOLOKAI AIRPT  MOSUNNY   78  70  76 NE12      30.00R
KALAUPAPA      NOT AVBL
MAKAPULAPAI*   NOT AVBL
MOLOKAI 1*     NOT AVBL
PUU ALII*        N/A     59  58  98 E2          N/A
$$

HIZ016-201900-
KAHOOLAWE-

CITY           SKY/WX    TMP DP  RH WIND       PRES   REMARKS
KAHOOLAWE*     NOT AVBL
HAKIOAWA*      NOT AVBL
HONOKANAIA*      N/A     82  68  62 N13G21    29.99R
KANELOA*         N/A     75  66  73 NE14G29   30.08R
KEALIALALO*    NOT AVBL
LUA MAKIKA*    NOT AVBL
$$

HIZ014>015-201900-
LANAI-

CITY           SKY/WX    TMP DP  RH WIND       PRES   REMARKS
LANAI CITY     FAIR      76  66  71 NE16      30.04R
LANAI 1*       NOT AVBL
$$

HIZ017>028-201900-
MAUI-

CITY           SKY/WX    TMP DP  RH WIND       PRES   REMARKS
KAHULUI        MOSUNNY   80  68  66 NE12G18   30.00R
KAPALUA-W MAUI MOSUNNY   77  66  69 NE16      29.99
HANA AIRPORT   PTSUNNY   73  72  94 CALM      30.04S
HANA*            N/A     75 N/A N/A E7G13       N/A
HALEAKALA SUMM   N/A     52  18  25 SE13        N/A
MAALAEA BAY*   NOT AVBL
HALEAKALA*     NOT AVBL
KAUPO GAP*     NOT AVBL
KULA 1*          N/A     53  39  59 N3          N/A
$$

HIZ023>026-201900-
BIG ISLAND OF HAWAII COAST AND LOWER SLOPES-

CITY           SKY/WX    TMP DP  RH WIND       PRES   REMARKS
KAILUA KONA    SUNNY     81  67  62 SE3       29.96R
HILO           MOSUNNY   78  64  61 SW5       30.00R
HONOKAA*       NOT AVBL
KAWAIHAE MWT*    N/A     84 N/A N/A W2          N/A
KAWAIHAE*        N/A     81 N/A N/A W3          N/A
SOUTH POINT*     N/A     73 N/A N/A NE12G17     N/A
UPOLU AIRPORT*   N/A    N/A N/A N/A NE14G22     N/A
KAMUELA*       CLEAR     72  61  68 NE10      30.09S
HAKALAU*         N/A     60  51  72 S3          N/A
KALOKO-HONOKO*   N/A     82  70  65 SE5       29.95R
PALI 2*          N/A     73  59  60 NE12G17     N/A
KEALAKOMO*       N/A     79  63  57 VRB10G18    N/A
KAUPULEHU*     NOT AVBL
KAPAPALA*        N/A     73  59  61 N1          N/A
LOWER KAHUKU*  NOT AVBL
PUHE CS*       NOT AVBL
PUHO CS*         N/A     77  62  59 E2          N/A
PTA KEAMUKU*     N/A     72  59  64 SW1G8       N/A
WAIKOLOA*      NOT AVBL
$$

HIZ027>028-201900-
BIG ISLAND OF HAWAII INTERIOR AND SUMMMITS-

CITY           SKY/WX    TMP DP  RH WIND       PRES   REMARKS
BRADSHAW FIELD SUNNY     62  38  41 E1        30.32R
MK VISITOR CEN NOT AVBL
MAUNA KEA*       N/A     45 -15   8 SE3         N/A
MAUNA LOA*       N/A     50   7  17 MISG        N/A
MAUNA LOA 1*     N/A    N/A N/A N/A MISG        N/A
PTA KIPUKA*      N/A     66  48  52 N5          N/A
PTA RANGE 17*    N/A     61  50  67 E8          N/A
PTA WEST*        N/A     70  50  49 N3G14       N/A
NENE CABIN*    NOT AVBL
AHUMOA*        NOT AVBL
PTA PORTABLE*  NOT AVBL
PUU MALI*      NOT AVBL
$$

HIC003-201900-
NORTHWEST ISLANDS-

CITY           SKY/WX    TMP DP  RH WIND       PRES   REMARKS
MIDWAY ISLAND  CLEAR     82  73  74 S8        30.03R
MIDWAY NOS*    NOT AVBL
FRENCH FRIGATE NOT AVBL
$$

PHZ110>124-180-201900-
BUOY REPORTS

STATION/POSITION TIME  TEMP    WIND        PRES    WAVE   SWELL
                       AIR SEA DIR/SP/G            HT/PER HT/DIR
                 (UTC) (F)     (DEG/KT/KT) (MB)    (FT/S) (FT/D)
BUOY 51001       NOT AVBL
BUOY 51101       NOT AVBL
BUOY 51100       1700   77 78   90/ 10/ 12 1016.5
BUOY 51003       1800   80 81  100/  8/ 10 1014.6R   5/ 6   5
BUOY 51004       1722   80 80   90/ 12/ 14 1014.0R   6/ 8   5/ 80
BARBERS PT BUOY  NOT AVBL
WAIMEA BAY BUOY  1800      81                N/A     3/ 6
KAILUA BAY BUOY  1800      80                N/A     5/ 5   2/ 90
LANAI BUOY       NOT AVBL
BARBERS PT 2     1800      81                N/A     3/10   2/200
PAUWELA MAUI     1800      80                N/A     4/ 8   2/ 70
HILO             NOT AVBL
KANEOHE BAY BUOY 1800      80                N/A     3/ 8
HANALEI KAUAI    NOT AVBL
KAHULUI HARBOR   1800   77 81   20/  5/  9 1015.7R
HONOLULU HARBOR  1800   81     140/  2/  5 1015.7R
KILO NALU        NOT AVBL
HILO HARBOR      1800   77     230/  4/  6 1015.3R
MOKUOLOE         1800      81              1016.2R
NAWILIWILI       1800      81                N/A
WHOTS BUOY       NOT AVBL
BUOY 51028       NOT AVBL
$$

......................KEY........................................
  SKY/WX - SKY CONDITIONS/PRESENT WEATHER
  TMP    - TEMPERATURE IN FAHRENHEIT
  DWPT   - DEWPOINT IN FAHRENHEIT
  RH     - RELATIVE HUMIDITY IN PERCENT
  WIND   - DIRECTION AND SPEED /MPH FOR ISLANDS...KTS FOR BUOYS/
  PRES   - MEAN SEA LEVEL PRESSURE IN INCHES OF HG
  VSB    - VISIBILITY IN MILES
  HX     - HEAT INDEX
  WCI    - WIND CHILL INDEX
  VRB    - VARIABLE WIND DIRECTION
  N/A    - NOT AVAILABLE


USA.gov is the U.S. government's official web portal to all federal, state and local government web resources and services.